Regional Weather Roundup
Issued by NWS

Home | Current Version | Previous Version | Text Only | Print | Product List | Glossary On
Versions: 1 2 3 4 5 6 7 8 9 10 11 12 13 14 15 16 17 18 19 20 21 22 23 24 25 26 27 28 29 30 31 32 33 34 35 36 37 38 39 40 41 42 43 44 45 46 47 48 49 50
000
ASUS43 KFSD 292210
RWRSD

WEATHER ROUNDUP FOR SOUTH DAKOTA
NATIONAL WEATHER SERVICE SIOUX FALLS SD
500 PM CDT FRI AUG 29 2014

NOTE: "FAIR" INDICATES FEW OR NO CLOUDS BELOW 12,000 FEET WITH NO
SIGNIFICANT WEATHER AND/OR OBSTRUCTIONS TO VISIBILITY.


SDZ001>005-009-010-012>017-292300-
NORTHWEST AND NORTH CENTRAL SOUTH DAKOTA

CITY           SKY/WX    TMP DP  RH WIND       PRES   REMARKS
BUFFALO          N/A     73  52  47 NW16G24   29.94R
FAITH            N/A     75  56  51 N20       29.94S
MOBRIDGE       PTSUNNY   70  61  73 N15       29.87R
$$

SDZ012>016-024>037-041>051-057-063-072>074-292300-
SOUTHWEST AND SOUTH CENTRAL SOUTH DAKOTA

CITY           SKY/WX    TMP DP  RH WIND       PRES   REMARKS
RAPID CTY ARPT SUNNY     78  53  41 NW13G22   29.98F
PIERRE         PTSUNNY   79  60  52 NW23G30   29.86R
CUSTER         PTSUNNY   66  50  56 SE8       30.09S
ELLSWORTH AFB  MOSUNNY   78  54  42 N15G23    29.98F
PHILIP         PTSUNNY   75  57  53 N18       29.93S
PINE RIDGE     MOSUNNY   76  54  46 N9        30.00S
WINNER         MOCLDY    78  63  59 NW18      29.84R
$$

SDZ004>011-016>023-039-040-292300-
NORTHEAST SOUTH DAKOTA

CITY           SKY/WX    TMP DP  RH WIND       PRES   REMARKS
ABERDEEN       MOSUNNY   78  63  59 NW14      29.78S
WATERTOWN      PTSUNNY   76  65  68 NW10      29.79R
SISSETON         N/A     78  66  66 N10       29.76R
$$

SDZ017-020-022-023-036>040-048>070-292300-
SOUTHEAST SOUTH DAKOTA

CITY           SKY/WX    TMP DP  RH WIND       PRES   REMARKS
SIOUX FALLS    CLOUDY    67  65  93 N6        29.78F THUNDER
HURON          PTSUNNY   82  67  60 N9        29.77R
CHAMBERLAIN    SUNNY     78  64  61 NW12      29.79F
MITCHELL       MOSUNNY   81  67  62 NW7       29.78S
YANKTON        PTSUNNY   77  68  73 W8        29.75S THUNDER
$$

ABBREVIATIONS USED IN REMARKS
   TC - TEMPERATURE IN CELSIUS
  WCI - WIND CHILL INDEX
   HX - HEAT INDEX
  VSB - VISIBILITY



USA.gov is the U.S. government's official web portal to all federal, state and local government web resources and services.